KB1GNF Weather Reports


Display with metric or nautical units.
time (UTC)temp
F
wind
direction
speed
MPH
gust
MPH
rain 1hr
in
rain 24hr
in
rain mn
in
humidity
%
barometer
mb
20260905024004 62 352 0.0 0.0 0.00 0.00 0.00 93 1010.4
20260905023504 62 221 0.0 0.0 0.00 0.00 0.00 93 1010.4
20260905023012 62 221 0.0 0.0 0.00 0.00 0.00 93 1010.4
20260905022506 62 220 0.0 0.0 0.00 0.00 0.00 93 1010.4
20260905022007 63 210 0.0 0.0 0.00 0.00 0.00 93 1010.5
20260905021516 62 210 0.0 0.0 0.00 0.00 0.00 93 1010.6
20260905021008 62 117 0.0 0.0 0.00 0.00 0.00 92 1010.7
20260905020507 63 63 0.0 0.0 0.00 0.00 0.00 92 1010.8
20260905020027 63 62 0.0 0.0 0.00 0.00 0.00 92 1010.7
20260905015511 63 62 0.0 0.0 0.00 0.00 0.00 92 1010.8
20260905015016 63 62 0.0 0.0 0.00 0.00 0.00 91 1010.9
20260905014530 63 67 0.0 0.0 0.00 0.00 0.00 91 1010.9
20260905014004 63 67 0.0 0.0 0.00 0.00 0.00 91 1010.9
20260905013503 63 67 0.0 0.0 0.00 0.00 0.00 91 1010.9
20260905013008 63 67 0.0 0.0 0.00 0.00 0.00 90 1011.0
20260905012504 64 67 0.0 0.0 0.00 0.00 0.00 90 1010.9
20260905012004 64 60 0.0 0.0 0.00 0.00 0.00 90 1010.9
20260905011518 64 59 0.0 0.0 0.00 0.00 0.00 90 1010.9
20260905011007 64 60 0.0 0.0 0.00 0.00 0.00 90 1010.9
20260905010508 64 1 0.0 0.0 0.00 0.00 0.00 90 1010.8
20260905010018 64 355 0.0 0.0 0.00 0.00 0.00 89 1010.8
20260905005508 65 355 0.0 0.0 0.00 0.00 0.00 89 1010.8
20260905005012 65 355 0.0 0.0 0.00 0.00 0.00 89 1010.9
20260905004527 65 342 0.0 0.0 0.00 0.00 0.00 89 1010.8
20260905004017 65 341 0.0 0.0 0.00 0.00 0.00 89 1010.6
20260905003514 65 342 0.0 0.0 0.00 0.00 0.00 89 1010.8
20260905003031 65 342 0.0 0.0 0.00 0.00 0.00 89 1010.7
20260905002514 66 342 0.0 0.0 0.00 0.00 0.00 88 1010.7
20260905002006 66 342 0.0 0.0 0.00 0.00 0.00 88 1010.7
20260905001509 66 341 0.0 0.0 0.00 0.00 0.00 88 1010.7
20260905001004 66 342 0.0 0.0 0.00 0.00 0.00 87 1010.6
20260905000507 67 342 0.0 0.0 0.00 0.00 0.00 87 1010.5
20260905000014 67 342 0.0 0.0 0.00 0.00 0.00 87 1010.5
20260904235509 67 342 0.0 0.0 0.00 0.00 0.00 87 1010.4
20260904235010 67 342 0.0 0.0 0.00 0.00 0.00 86 1010.4
20260904234532 67 341 0.0 0.0 0.00 0.00 0.00 86 1010.4
20260904234015 68 342 0.0 0.0 0.00 0.00 0.00 85 1010.4
20260904233512 68 335 0.0 0.0 0.00 0.00 0.00 85 1010.4
20260904233025 68 332 0.0 0.0 0.00 0.00 0.00 84 1010.4
20260904232512 69 332 0.0 0.0 0.00 0.00 0.00 84 1010.3
20260904232015 69 333 0.0 0.0 0.00 0.00 0.00 83 1010.3
20260904231532 70 333 0.0 0.0 0.00 0.00 0.00 82 1010.3
20260904231017 71 335 0.0 0.0 0.00 0.00 0.00 81 1010.1
20260904230505 71 335 0.0 0.0 0.00 0.00 0.00 80 1010.1
20260904230011 72 332 0.0 1.0 0.00 0.00 0.00 79 1010.1
20260904225506 73 333 0.0 1.0 0.00 0.00 0.00 76 1010.1
20260904225008 74 4 0.0 0.0 0.00 0.00 0.00 76 1010.0
20260904224518 74 4 0.0 0.0 0.00 0.00 0.00 75 1009.9
20260904224011 74 4 0.0 1.0 0.00 0.00 0.00 73 1009.8
20260904223510 75 4 0.0 1.0 0.00 0.00 0.00 75 1009.9
20260904223024 75 4 0.0 1.0 0.00 0.00 0.00 74 1010.0
20260904222514 76 4 0.0 3.0 0.00 0.00 0.00 76 1009.9
20260904222015 76 4 0.0 3.0 0.00 0.00 0.00 71 1009.8
20260904221533 76 349 0.0 4.0 0.00 0.00 0.00 74 1009.6
20260904221016 76 351 0.0 4.0 0.00 0.00 0.00 71 1009.6
20260904220516 75 350 1.0 4.0 0.00 0.00 0.00 74 1009.7
20260904220034 76 354 0.0 1.0 0.00 0.00 0.00 71 1009.7
20260904215515 76 354 0.0 3.0 0.00 0.00 0.00 72 1009.7
20260904215006 77 354 0.0 3.0 0.00 0.00 0.00 68 1009.7
20260904214515 77 326 0.0 3.0 0.00 0.00 0.00 66 1009.7
20260904214008 77 347 0.0 3.0 0.00 0.00 0.00 66 1009.8
20260904213511 77 278 1.0 2.0 0.00 0.00 0.00 63 1009.7
20260904213025 78 353 0.0 4.0 0.00 0.00 0.00 64 1009.7
20260904212511 78 356 2.0 4.0 0.00 0.00 0.00 61 1009.7
20260904212012 78 326 2.0 5.0 0.00 0.00 0.00 62 1009.7
20260904211526 78 1 2.0 5.0 0.00 0.00 0.00 60 1009.7
20260904211012 78 351 1.0 3.0 0.00 0.00 0.00 61 1009.7
20260904210512 78 314 0.0 3.0 0.00 0.00 0.00 64 1009.8
20260904210031 78 318 2.0 3.0 0.00 0.00 0.00 61 1009.8
20260904205516 78 324 0.0 2.0 0.00 0.00 0.00 64 1009.8
20260904205016 79 308 1.0 2.0 0.00 0.00 0.00 60 1009.7
20260904204534 79 319 0.0 2.0 0.00 0.00 0.00 59 1009.7
20260904204018 79 335 0.0 2.0 0.00 0.00 0.00 60 1009.6
20260904203514 79 343 1.0 6.0 0.00 0.00 0.00 59 1009.6
20260904203018 80 321 1.0 7.0 0.00 0.00 0.00 58 1009.6
20260904202508 80 359 2.0 7.0 0.00 0.00 0.00 57 1009.6
20260904202010 80 338 3.0 7.0 0.00 0.00 0.00 56 1009.6
20260904201524 80 345 1.0 6.0 0.00 0.00 0.00 56 1009.6
20260904201013 80 360 2.0 7.0 0.00 0.00 0.00 57 1009.6
20260904200515 80 18 2.0 7.0 0.00 0.00 0.00 57 1009.6
20260904200029 80 10 3.0 7.0 0.00 0.00 0.00 58 1009.8
20260904195516 80 337 2.0 7.0 0.00 0.00 0.00 58 1009.9
20260904195014 80 3 3.0 6.0 0.00 0.00 0.00 56 1009.9
20260904194529 80 359 2.0 6.0 0.00 0.00 0.00 55 1009.9
20260904194017 81 337 2.0 7.0 0.00 0.00 0.00 54 1010.0
20260904193514 81 359 2.0 8.0 0.00 0.00 0.00 52 1009.8
20260904193034 82 360 3.0 8.0 0.00 0.00 0.00 53 1009.8
20260904192519 82 297 1.0 8.0 0.00 0.00 0.00 52 1009.7
20260904192021 82 253 3.0 7.0 0.00 0.00 0.00 51 1009.7
20260904191519 81 354 2.0 6.0 0.00 0.00 0.00 54 1009.7
20260904191008 82 352 3.0 6.0 0.00 0.00 0.00 54 1009.8
20260904190514 81 268 1.0 4.0 0.00 0.00 0.00 58 1009.9
20260904190009 80 318 1.0 4.0 0.00 0.00 0.00 57 1009.8
20260904185504 80 88 2.0 4.0 0.00 0.00 0.00 55 1009.9
20260904185004 80 346 1.0 6.0 0.00 0.00 0.00 56 1009.9
20260904184504 80 344 1.0 6.0 0.00 0.00 0.00 56 1010.0
20260904184004 81 4 3.0 7.0 0.00 0.00 0.00 54 1010.0
20260904183504 81 340 3.0 10.0 0.00 0.00 0.00 53 1010.1
20260904183011 82 349 3.0 10.0 0.00 0.00 0.00 51 1010.2
20260904182508 83 323 1.0 5.0 0.00 0.00 0.00 54 1010.3
20260904182010 82 230 1.0 8.0 0.00 0.00 0.00 55 1010.3
20260904181514 82 287 2.0 8.0 0.00 0.00 0.00 52 1010.3
20260904181008 81 311 3.0 10.0 0.00 0.00 0.00 55 1010.2
20260904180510 81 2 5.0 10.0 0.00 0.00 0.00 54 1010.2
20260904180023 80 347 3.0 9.0 0.00 0.00 0.00 56 1010.2
20260904175512 80 281 3.0 16.0 0.00 0.00 0.00 55 1010.2
20260904175014 80 349 3.0 16.0 0.00 0.00 0.00 57 1010.2
20260904174528 81 296 4.0 7.0 0.00 0.00 0.00 55 1010.0
20260904174004 81 305 3.0 8.0 0.00 0.00 0.00 56 1010.0
20260904173503 80 335 4.0 8.0 0.00 0.00 0.00 55 1009.9
20260904173007 80 328 3.0 9.0 0.00 0.00 0.00 57 1009.9
20260904172505 80 294 5.0 9.0 0.00 0.00 0.00 55 1010.0
20260904172003 81 349 4.0 9.0 0.00 0.00 0.00 54 1010.0
20260904171512 81 342 4.0 7.0 0.00 0.00 0.00 55 1010.1
20260904171007 81 23 2.0 5.0 0.00 0.00 0.00 60 1010.2
20260904170508 80 338 0.0 8.0 0.00 0.00 0.00 60 1010.2
20260904170018 79 307 2.0 8.0 0.00 0.00 0.00 61 1010.2
20260904165511 80 347 4.0 8.0 0.00 0.00 0.00 58 1010.1
20260904165013 79 293 2.0 7.0 0.00 0.00 0.00 59 1010.2
20260904164529 79 330 3.0 7.0 0.00 0.00 0.00 60 1010.2
20260904164012 79 346 2.0 6.0 0.00 0.00 0.00 62 1010.2
20260904163514 80 340 1.0 7.0 0.00 0.00 0.00 61 1010.3
20260904163029 81 10 2.0 7.0 0.00 0.00 0.00 60 1010.4
20260904162505 81 292 1.0 3.0 0.00 0.00 0.00 63 1010.3
20260904162005 80 219 1.0 4.0 0.00 0.00 0.00 63 1010.4
20260904161508 80 307 1.0 4.0 0.00 0.00 0.00 64 1010.5
20260904161004 79 280 0.0 2.0 0.00 0.00 0.00 66 1010.6
20260904160510 79 292 0.0 5.0 0.00 0.00 0.00 67 1010.6
20260904160020 79 288 0.0 5.0 0.00 0.00 0.00 67 1010.7
20260904155508 79 328 2.0 6.0 0.00 0.00 0.00 66 1010.8
20260904155010 79 353 3.0 6.0 0.00 0.00 0.00 66 1010.7
20260904154528 79 25 1.0 8.0 0.00 0.00 0.00 69 1010.8
20260904154012 79 1 2.0 8.0 0.00 0.00 0.00 68 1011.0
20260904153512 78 252 1.0 8.0 0.00 0.00 0.00 69 1010.9
20260904153027 78 2 3.0 8.0 0.00 0.00 0.00 68 1011.0
20260904152514 78 358 2.0 5.0 0.00 0.00 0.00 68 1011.1
20260904152014 78 12 3.0 5.0 0.00 0.00 0.00 70 1011.1
20260904151533 79 340 1.0 2.0 0.00 0.00 0.00 71 1011.2
20260904151015 78 255 0.0 2.0 0.00 0.00 0.00 72 1011.3
20260904150506 77 292 1.0 5.0 0.00 0.00 0.00 74 1011.1
20260904150029 76 27 1.0 5.0 0.00 0.00 0.00 74 1011.2
20260904145507 76 285 1.0 4.0 0.00 0.00 0.00 76 1011.3
20260904145005 75 347 2.0 5.0 0.00 0.00 0.00 78 1011.3
20260904144517 75 351 2.0 5.0 0.00 0.00 0.00 76 1011.4
20260904144010 75 288 2.0 4.0 0.00 0.00 0.00 78 1011.4
20260904143508 74 356 1.0 4.0 0.00 0.00 0.00 81 1011.5
20260904143024 73 9 1.0 4.0 0.00 0.00 0.00 82 1011.6
20260904142513 72 96 0.0 4.0 0.00 0.00 0.00 85 1011.5
20260904142012 71 112 2.0 4.0 0.00 0.00 0.00 85 1011.5
20260904141531 70 63 2.0 4.0 0.00 0.00 0.00 88 1011.5
20260904141014 69 111 0.0 3.0 0.00 0.00 0.00 89 1011.6
20260904140513 69 53 1.0 3.0 0.00 0.00 0.00 92 1011.7
20260904140035 68 90 0.0 4.0 0.00 0.00 0.00 93 1011.7
20260904135515 67 100 1.0 4.0 0.00 0.00 0.00 93 1011.8
20260904135007 67 91 2.0 4.0 0.00 0.00 0.00 94 1011.8
20260904134514 67 117 3.0 4.0 0.00 0.00 0.00 94 1011.9
20260904134008 67 103 2.0 3.0 0.00 0.00 0.00 96 1011.8
20260904133508 66 94 1.0 4.0 0.00 0.00 0.00 97 1011.8
20260904133019 65 84 2.0 4.0 0.00 0.00 0.00 97 1011.8
20260904132514 65 91 1.0 4.0 0.00 0.00 0.00 97 1011.8
20260904132012 65 117 2.0 4.0 0.00 0.00 0.00 97 1011.8
20260904131527 65 61 0.0 2.0 0.00 0.00 0.00 98 1011.7
20260904131012 64 109 0.0 2.0 0.00 0.00 0.00 98 1011.8
20260904130515 64 108 1.0 3.0 0.00 0.00 0.00 98 1011.8
20260904130044 64 108 2.0 3.0 0.00 0.00 0.00 98 1011.7
20260904125514 63 107 0.0 2.0 0.00 0.00 0.00 98 1011.7
20260904125014 64 105 0.0 1.0 0.00 0.00 0.00 98 1011.8
20260904124536 63 45 0.0 1.0 0.00 0.00 0.00 98 1011.8
20260904124015 63 45 0.0 1.0 0.00 0.00 0.00 97 1011.8
20260904123508 63 52 0.0 1.0 0.00 0.00 0.00 98 1011.8
20260904123016 63 52 0.0 1.0 0.00 0.00 0.00 98 1011.8
20260904122512 63 52 0.0 1.0 0.00 0.00 0.00 98 1011.6
20260904122010 63 52 0.0 0.0 0.00 0.00 0.00 98 1011.6
20260904121524 63 68 0.0 1.0 0.00 0.00 0.00 98 1011.5
20260904121010 63 69 0.0 1.0 0.00 0.00 0.00 98 1011.5
20260904120513 62 20 0.0 1.0 0.00 0.00 0.00 98 1011.5
20260904120026 62 20 0.0 1.0 0.00 0.00 0.00 98 1011.6
20260904115514 62 20 0.0 1.0 0.00 0.00 0.00 98 1011.6
20260904115014 62 4 0.0 2.0 0.00 0.00 0.00 98 1011.5
20260904114531 62 83 0.0 3.0 0.00 0.00 0.00 98 1011.4
20260904114017 62 342 0.0 3.0 0.00 0.00 0.00 98 1011.3
20260904113517 62 16 0.0 2.0 0.00 0.00 0.00 98 1011.4
20260904113036 62 345 1.0 2.0 0.00 0.00 0.00 98 1011.3
20260904112518 62 356 0.0 2.0 0.00 0.00 0.00 98 1011.2
20260904112019 62 4 1.0 2.0 0.00 0.00 0.00 98 1011.1
20260904111534 62 68 0.0 0.0 0.00 0.00 0.00 98 1011.1
20260904111012 62 352 0.0 0.0 0.00 0.00 0.00 98 1011.1
20260904110511 62 352 0.0 0.0 0.00 0.00 0.00 98 1011.0
20260904110026 63 352 0.0 0.0 0.00 0.00 0.00 98 1011.0
20260904105512 63 356 0.0 0.0 0.00 0.00 0.00 98 1011.0
20260904105014 63 356 0.0 0.0 0.00 0.01 0.00 98 1010.9
20260904104535 63 356 0.0 0.0 0.00 0.01 0.00 98 1011.0
20260904104015 63 356 0.0 0.0 0.00 0.01 0.00 98 1010.9
20260904103514 63 356 0.0 0.0 0.00 0.01 0.00 98 1010.9
20260904103031 63 356 0.0 0.0 0.00 0.01 0.00 98 1010.8
20260904102518 63 356 0.0 0.0 0.00 0.01 0.00 98 1010.9
20260904102015 63 356 0.0 0.0 0.00 0.01 0.00 98 1010.8
20260904101533 63 355 0.0 0.0 0.00 0.01 0.00 98 1010.7
20260904101020 63 97 0.0 0.0 0.00 0.01 0.00 98 1010.6
20260904100519 63 97 0.0 0.0 0.00 0.01 0.00 98 1010.6
20260904100003 63 100 0.0 0.0 0.00 0.01 0.00 98 1010.6
20260904095503 63 101 0.0 0.0 0.00 0.01 0.00 98 1010.7
20260904095002 63 100 0.0 0.0 0.00 0.01 0.00 98 1010.7
20260904094504 63 100 0.0 0.0 0.00 0.01 0.00 98 1010.6
20260904094002 63 102 0.0 0.0 0.00 0.01 0.00 98 1010.6
20260904093502 64 102 0.0 0.0 0.00 0.01 0.00 98 1010.6
20260904093004 64 103 0.0 0.0 0.00 0.01 0.00 98 1010.6
20260904092502 64 103 0.0 0.0 0.00 0.01 0.00 98 1010.6
20260904092002 64 103 0.0 1.0 0.00 0.01 0.00 98 1010.6
20260904091504 64 103 0.0 2.0 0.00 0.01 0.00 98 1010.6
20260904091004 64 89 0.0 2.0 0.00 0.01 0.00 98 1010.5
20260904090503 64 97 0.0 1.0 0.00 0.01 0.00 98 1010.4
20260904090005 64 115 0.0 0.0 0.00 0.01 0.00 98 1010.4
20260904085503 64 237 0.0 0.0 0.00 0.01 0.00 98 1010.4
20260904085003 64 237 0.0 0.0 0.00 0.01 0.00 98 1010.5
20260904084505 64 237 0.0 0.0 0.00 0.01 0.00 98 1010.4
20260904084002 64 238 0.0 0.0 0.00 0.01 0.00 98 1010.4
20260904083502 64 238 0.0 0.0 0.00 0.01 0.00 98 1010.4
20260904083004 64 237 0.0 0.0 0.00 0.01 0.00 98 1010.5
20260904082503 64 237 0.0 0.0 0.00 0.01 0.00 98 1010.4
20260904082004 64 237 0.0 0.0 0.00 0.01 0.00 98 1010.3
20260904081507 64 237 0.0 0.0 0.00 0.02 0.00 98 1010.4
20260904081002 64 237 0.0 0.0 0.00 0.02 0.00 98 1010.4
20260904080503 64 237 0.0 0.0 0.00 0.02 0.00 98 1010.4
20260904080004 64 237 0.0 1.0 0.00 0.02 0.00 98 1010.5
20260904075504 64 238 0.0 1.0 0.00 0.02 0.00 98 1010.6
20260904075003 64 205 0.0 0.0 0.00 0.02 0.00 98 1010.6
20260904074505 64 205 0.0 0.0 0.00 0.02 0.00 98 1010.7
20260904074003 64 205 0.0 0.0 0.00 0.02 0.00 98 1010.8
20260904073506 64 205 0.0 0.0 0.00 0.02 0.00 98 1011.0
20260904073002 64 205 0.0 0.0 0.00 0.02 0.00 98 1011.0
20260904072503 64 205 0.0 0.0 0.00 0.02 0.00 98 1011.0
20260904072003 64 205 0.0 0.0 0.00 0.02 0.00 98 1011.1
20260904071504 64 205 0.0 0.0 0.00 0.02 0.00 98 1011.1
20260904071004 64 205 0.0 0.0 0.00 0.02 0.00 98 1011.1
20260904070504 65 205 0.0 0.0 0.00 0.02 0.00 98 1011.1
20260904070004 65 205 0.0 0.0 0.00 0.02 0.00 98 1011.0
20260904065504 65 205 0.0 0.0 0.00 0.02 0.00 98 1010.8
20260904065003 65 205 0.0 0.0 0.00 0.02 0.00 98 1010.8
20260904064507 65 205 0.0 0.0 0.00 0.02 0.00 98 1010.8
20260904064006 65 205 0.0 0.0 0.00 0.02 0.00 98 1010.7
20260904063503 65 205 0.0 0.0 0.00 0.02 0.00 98 1010.9
20260904063004 65 205 0.0 0.0 0.00 0.02 0.00 98 1011.0
20260904062504 65 205 0.0 0.0 0.00 0.02 0.00 98 1011.0
20260904062003 65 205 0.0 0.0 0.00 0.02 0.00 98 1010.9
20260904061514 65 206 0.0 0.0 0.00 0.02 0.00 98 1011.0
20260904061006 65 205 0.0 0.0 0.00 0.02 0.00 98 1010.9
20260904060504 65 205 0.0 0.0 0.00 0.03 0.00 98 1011.0
20260904060009 65 205 0.0 0.0 0.00 0.03 0.00 98 1011.1
20260904055503 65 205 0.0 0.0 0.00 0.03 0.00 98 1011.2
20260904055004 65 205 0.0 0.0 0.00 0.03 0.00 98 1011.2
20260904054514 65 205 0.0 0.0 0.00 0.03 0.00 98 1011.2
20260904054002 65 205 0.0 1.0 0.00 0.03 0.00 98 1011.3
20260904053503 65 205 0.0 1.0 0.00 0.03 0.00 98 1011.4
20260904053008 65 330 0.0 1.0 0.00 0.03 0.00 98 1011.5
20260904052504 65 331 0.0 0.0 0.00 0.03 0.00 97 1011.5
20260904052004 65 331 0.0 0.0 0.00 0.03 0.00 97 1011.6
20260904051519 65 328 0.0 0.0 0.00 0.03 0.00 97 1011.7
20260904051004 65 328 0.0 1.0 0.00 0.03 0.00 97 1011.7
20260904050504 65 328 0.0 1.0 0.00 0.03 0.00 97 1011.8
20260904050007 65 328 0.0 1.0 0.00 0.03 0.00 97 1011.8
20260904045506 65 259 0.0 1.0 0.00 0.03 0.00 97 1011.8
20260904045005 65 259 0.0 1.0 0.00 0.03 0.00 97 1011.8
20260904044509 65 259 0.0 1.0 0.00 0.03 0.00 97 1011.8
20260904044006 66 259 0.0 1.0 0.00 0.03 0.00 97 1011.8
20260904043504 66 246 0.0 0.0 0.00 0.03 0.00 97 1011.8
20260904043008 66 247 0.0 0.0 0.00 0.03 0.00 98 1011.8
20260904042504 66 247 0.0 0.0 0.00 0.03 0.00 97 1011.8
20260904042006 66 247 0.0 0.0 0.00 0.03 0.00 97 1011.8
20260904041519 66 246 0.0 0.0 0.00 0.03 0.00 98 1011.9
20260904041006 66 246 0.0 0.0 0.00 0.03 0.00 97 1011.9
20260904040506 66 246 0.0 0.0 0.00 0.03 0.00 97 1011.9
20260904040020 66 247 0.0 0.0 0.00 0.03 0.00 97 1011.9
20260904035504 66 246 0.0 0.0 0.00 0.03 0.03 97 1011.9
20260904035003 66 247 0.0 0.0 0.00 0.03 0.03 97 1011.8
20260904034508 66 247 0.0 1.0 0.00 0.03 0.03 97 1012.1
20260904034004 66 246 0.0 1.0 0.00 0.03 0.03 97 1012.1
20260904033504 66 246 0.0 1.0 0.00 0.03 0.03 97 1012.1
20260904033009 66 246 0.0 1.0 0.00 0.03 0.03 97 1012.1
20260904032504 66 247 0.0 1.0 0.00 0.03 0.03 97 1012.1
20260904032004 66 247 0.0 0.0 0.00 0.03 0.03 97 1012.0
20260904031510 66 246 0.0 0.0 0.00 0.03 0.03 97 1012.1
20260904031008 66 246 0.0 0.0 0.00 0.03 0.03 97 1012.2
20260904030506 66 246 0.0 0.0 0.00 0.03 0.03 97 1012.3
20260904030014 66 246 0.0 0.0 0.00 0.03 0.03 97 1012.3
20260904025504 66 247 0.0 0.0 0.00 0.03 0.03 97 1012.3
20260904025008 66 247 0.0 0.0 0.00 0.03 0.03 97 1012.3
20260904024514 66 247 0.0 0.0 0.00 0.03 0.03 97 1012.3